Tracking 20036 objects as of 22-Nov-2019
Live streaming from Space Station
objects crossing your sky now

COSMOS 1136

Track COSMOS 1136 now!
10-day predictions
COSMOS 1136 is classified as:


NORAD ID: 11544
Int'l Code: 1979-084G
Perigee: 1,478.8 km
Apogee: 1,504.1 km
Inclination: 74.0 °
Period: 115.6 minutes
Semi major axis: 7862 km
RCS: 0.6827 m2 (medium)
Launch date: September 25, 1979
Source: Commonwealth of Independent States (former USSR) (CIS)
Launch site: PLESETSK MISSILE AND SPACE COMPLEX (PKMTR)
aabbcc
Your satellite tracking list
Your tracking list is empty




NASA's NSSDC Master Catalog

Two Line Element Set (TLE):
1 11544U 79084G   19325.90711515 -.00000014 +00000-0 +15139-4 0  9991
2 11544 074.0251 085.5398 0016112 328.0961 144.8282 12.45270489825459
Source of the keplerian elements: AFSPC